When you browse on this site, cookies collect data to enhance your experience and personalize the content and advertising you see.
Visit our Privacy Policy to learn more. By continuing to use the site, you agree to this use of cookies and data.
  • în România
  • Lista ţărilor
  • Pe 7 zile
  • Temperatura apei
  • Meteo pe hartă
  • Widget-uri
  • user-avatar
    Intrare

    Meteo pe oră la Pune

    Astăzi, 6 Aprilie, Luni

    Timp Temperatura Precipitaţii Vânt Presiune Umiditate
    00:00 +28°C° 0 mm 2 m/s 712 mmHg 38%
    01:00 +28°C° 0 mm 2 m/s 712 mmHg 40%
    02:00 +27°C° 0 mm 2 m/s 711 mmHg 42%
    03:00 +27°C° 0 mm 2 m/s 711 mmHg 42%
    04:00 +26°C° 0 mm 2 m/s 711 mmHg 42%
    05:00 +25°C° 0 mm 1 m/s 711 mmHg 50%
    06:00 +27°C° 0 mm 1 m/s 712 mmHg 42%
    07:00 +29°C° 0 mm 2 m/s 713 mmHg 35%
    08:00 +31°C° 0 mm 2 m/s 713 mmHg 27%
    09:00 +34°C° 0 mm 2 m/s 714 mmHg 22%
    10:00 +35°C° 0 mm 1 m/s 714 mmHg 17%
    11:00 +39°C° 0 mm 1 m/s 714 mmHg 13%
    12:00 +39°C° 0 mm 2 m/s 713 mmHg 13%
    13:00 +40°C° 0 mm 3 m/s 713 mmHg 13%
    14:00 +41°C° 0 mm 4 m/s 712 mmHg 13%
    15:00 +41°C° 0 mm 5 m/s 711 mmHg 16%
    16:00 +40°C° 0 mm 6 m/s 711 mmHg 20%
    17:00 +39°C° 0 mm 6 m/s 711 mmHg 23%
    18:00 +35°C° 0 mm 5 m/s 711 mmHg 31%
    19:00 +33°C° 0 mm 4 m/s 711 mmHg 40%
    20:00 +30°C° 0 mm 3 m/s 712 mmHg 48%
    21:00 +29°C° 0 mm 3 m/s 712 mmHg 50%
    22:00 +29°C° 0 mm 3 m/s 712 mmHg 51%
    23:00 +28°C° 0 mm 2 m/s 712 mmHg 52%

    Mâine, 7 Aprilie, Marţi

    Timp Temperatura Precipitaţii Vânt Presiune Umiditate
    00:00 +28°C° 0 mm 2 m/s 711 mmHg 50%
    01:00 +27°C° 0 mm 2 m/s 711 mmHg 49%
    02:00 +27°C° 0 mm 2 m/s 710 mmHg 47%
    03:00 +26°C° 0 mm 1 m/s 710 mmHg 46%
    04:00 +26°C° 0 mm 1 m/s 710 mmHg 45%
    05:00 +25°C° 0 mm 1 m/s 710 mmHg 44%
    06:00 +27°C° 0 mm 1 m/s 711 mmHg 39%
    07:00 +28°C° 0 mm 2 m/s 712 mmHg 35%
    08:00 +30°C° 0 mm 2 m/s 712 mmHg 31%
    09:00 +32°C° 0 mm 2 m/s 712 mmHg 25%
    10:00 +35°C° 0 mm 3 m/s 712 mmHg 19%
    11:00 +37°C° 0 mm 3 m/s 713 mmHg 14%
    12:00 +38°C° 0 mm 4 m/s 712 mmHg 14%
    13:00 +40°C° 0 mm 5 m/s 711 mmHg 13%
    14:00 +41°C° 0 mm 6 m/s 711 mmHg 13%
    15:00 +40°C° 0 mm 6 m/s 710 mmHg 15%
    16:00 +39°C° 0 mm 7 m/s 710 mmHg 17%
    17:00 +38°C° 0 mm 7 m/s 710 mmHg 18%
    18:00 +35°C° 0 mm 6 m/s 710 mmHg 24%
    19:00 +32°C° 0 mm 4 m/s 710 mmHg 29%
    20:00 +29°C° 0 mm 3 m/s 711 mmHg 35%
    21:00 +29°C° 0 mm 3 m/s 711 mmHg 35%
    22:00 +28°C° 0 mm 3 m/s 711 mmHg 36%
    23:00 +27°C° 0 mm 3 m/s 711 mmHg 36%

    Poimâine, 8 Aprilie, Miercuri

    Timp Temperatura Precipitaţii Vânt Presiune Umiditate
    00:00 +27°C° 0 mm 3 m/s 711 mmHg 33%
    01:00 +26°C° 0 mm 3 m/s 710 mmHg 31%
    02:00 +26°C° 0 mm 3 m/s 710 mmHg 28%
    03:00 +25°C° 0 mm 3 m/s 710 mmHg 32%
    04:00 +25°C° 0 mm 3 m/s 710 mmHg 35%
    05:00 +23°C° 0 mm 4 m/s 710 mmHg 39%
    06:00 +25°C° 0 mm 3 m/s 711 mmHg 35%
    07:00 +27°C° 0 mm 2 m/s 712 mmHg 31%
    08:00 +28°C° 0 mm 2 m/s 713 mmHg 27%
    09:00 +30°C° 0 mm 3 m/s 713 mmHg 23%
    10:00 +34°C° 0 mm 3 m/s 713 mmHg 19%
    11:00 +36°C° 0 mm 4 m/s 713 mmHg 16%
    12:00 +37°C° 0 mm 5 m/s 713 mmHg 15%
    13:00 +39°C° 0 mm 5 m/s 712 mmHg 14%
    14:00 +40°C° 0 mm 6 m/s 711 mmHg 14%
    15:00 +39°C° 0 mm 6 m/s 711 mmHg 15%
    16:00 +38°C° 0 mm 6 m/s 711 mmHg 16%
    17:00 +36°C° 0 mm 6 m/s 710 mmHg 16%
    18:00 +34°C° 0 mm 5 m/s 711 mmHg 22%
    19:00 +30°C° 0 mm 4 m/s 711 mmHg 27%
    20:00 +28°C° 0 mm 3 m/s 711 mmHg 33%
    21:00 +27°C° 0 mm 3 m/s 711 mmHg 35%
    22:00 +26°C° 0 mm 3 m/s 711 mmHg 38%
    23:00 +25°C° 0 mm 3 m/s 711 mmHg 40%

    9 Aprilie, Joi

    Timp Temperatura Precipitaţii Vânt Presiune Umiditate
    00:00 +25°C° 0 mm 3 m/s 711 mmHg 43%
    01:00 +24°C° 0 mm 3 m/s 711 mmHg 46%
    02:00 +24°C° 0 mm 3 m/s 710 mmHg 49%
    03:00 +22°C° 0 mm 3 m/s 710 mmHg 49%
    04:00 +22°C° 0 mm 3 m/s 710 mmHg 50%
    05:00 +22°C° 0 mm 3 m/s 710 mmHg 50%
    06:00 +25°C° 0 mm 2 m/s 711 mmHg 44%
    07:00 +27°C° 0 mm 2 m/s 712 mmHg 39%
    08:00 +28°C° 0 mm 2 m/s 713 mmHg 33%
    09:00 +31°C° 0 mm 3 m/s 713 mmHg 28%
    10:00 +34°C° 0 mm 3 m/s 713 mmHg 22%
    11:00 +36°C° 0 mm 4 m/s 713 mmHg 17%
    12:00 +37°C° 0 mm 3 m/s 712 mmHg 16%
    13:00 +38°C° 0 mm 3 m/s 711 mmHg 14%
    14:00 +39°C° 0 mm 3 m/s 711 mmHg 13%
    15:00 +40°C° 0 mm 4 m/s 710 mmHg 14%
    16:00 +38°C° 0 mm 4 m/s 710 mmHg 15%
    17:00 +39°C° 0 mm 5 m/s 710 mmHg 16%
    18:00 +36°C° 0 mm 4 m/s 710 mmHg 27%
    19:00 +33°C° 0 mm 4 m/s 710 mmHg 37%
    20:00 +29°C° 0 mm 4 m/s 711 mmHg 48%
    21:00 +29°C° 0 mm 3 m/s 711 mmHg 49%
    22:00 +28°C° 0 mm 3 m/s 711 mmHg 50%
    23:00 +27°C° 0 mm 2 m/s 711 mmHg 51%

    10 Aprilie, Vineri

    Timp Temperatura Precipitaţii Vânt Presiune Umiditate
    00:00 +27°C° 0 mm 2 m/s 711 mmHg 50%
    01:00 +26°C° 0 mm 2 m/s 710 mmHg 49%
    02:00 +25°C° 0 mm 2 m/s 710 mmHg 47%
    03:00 +25°C° 0 mm 2 m/s 710 mmHg 48%
    04:00 +25°C° 0 mm 2 m/s 710 mmHg 48%
    05:00 +24°C° 0 mm 1 m/s 710 mmHg 49%
    06:00 +26°C° 0 mm 1 m/s 710 mmHg 41%
    07:00 +28°C° 0 mm 2 m/s 711 mmHg 34%
    08:00 +30°C° 0 mm 2 m/s 712 mmHg 27%
    09:00 +34°C° 0 mm 2 m/s 712 mmHg 22%
    10:00 +36°C° 0 mm 2 m/s 713 mmHg 18%
    11:00 +39°C° 0 mm 2 m/s 713 mmHg 13%
    12:00 +39°C° 0 mm 2 m/s 712 mmHg 12%
    13:00 +40°C° 0 mm 2 m/s 711 mmHg 11%
    14:00 +41°C° 0 mm 1 m/s 710 mmHg 10%
    15:00 +41°C° 0 mm 2 m/s 710 mmHg 11%
    16:00 +40°C° 0 mm 2 m/s 710 mmHg 11%
    17:00 +40°C° 0 mm 2 m/s 709 mmHg 11%
    18:00 +38°C° 0 mm 3 m/s 710 mmHg 17%
    19:00 +35°C° 0 mm 3 m/s 710 mmHg 23%
    20:00 +33°C° 0 mm 4 m/s 710 mmHg 28%
    21:00 +31°C° 0 mm 3 m/s 710 mmHg 29%
    22:00 +31°C° 0 mm 3 m/s 711 mmHg 29%
    23:00 +30°C° 0 mm 2 m/s 711 mmHg 30%

    11 Aprilie, Sâmbătă

    Timp Temperatura Precipitaţii Vânt Presiune Umiditate
    00:00 +30°C° 0 mm 2 m/s 711 mmHg 29%
    01:00 +29°C° 0 mm 1 m/s 710 mmHg 29%
    02:00 +28°C° 0 mm 1 m/s 710 mmHg 29%
    03:00 +28°C° 0 mm 1 m/s 710 mmHg 29%
    04:00 +25°C° 0 mm 0 m/s 710 mmHg 28%
    05:00 +25°C° 0 mm 0 m/s 710 mmHg 28%
    06:00 +29°C° 0 mm 1 m/s 711 mmHg 25%
    07:00 +31°C° 0 mm 1 m/s 712 mmHg 21%
    08:00 +34°C° 0 mm 2 m/s 713 mmHg 17%
    09:00 +36°C° 0 mm 3 m/s 713 mmHg 15%
    10:00 +39°C° 0 mm 5 m/s 713 mmHg 13%
    11:00 +42°C° 0 mm 6 m/s 713 mmHg 10%
    12:00 +42°C° 0 mm 5 m/s 712 mmHg 11%
    13:00 +42°C° 0 mm 4 m/s 711 mmHg 12%
    14:00 +42°C° 0 mm 4 m/s 710 mmHg 12%
    15:00 +42°C° 0 mm 3 m/s 710 mmHg 13%
    16:00 +40°C° 0 mm 3 m/s 710 mmHg 13%
    17:00 +40°C° 0 mm 3 m/s 709 mmHg 14%
    18:00 +38°C° 0 mm 2 m/s 710 mmHg 16%
    19:00 +36°C° 0 mm 2 m/s 710 mmHg 19%
    20:00 +34°C° 0 mm 2 m/s 710 mmHg 21%
    21:00 +33°C° 0 mm 1 m/s 711 mmHg 22%
    22:00 +32°C° 0 mm 1 m/s 711 mmHg 23%
    23:00 +31°C° 0 mm 1 m/s 711 mmHg 24%
    Arată mai mult